SCP
0 0 0 0 0 0 0 0 0 0 0 0 0 0 -0 -0 0 0 0 0 0 0 0 0 0 0 0 0 0 0 0 0 0 0 0 0 0 0 0 0 0 0 0 0
0 0 0 0 0 0 0 0 0 0 0 0 0 0 0 0 0 0 0 0 0 0 0 0 0 0 0 0 0 0 0 0 0 0 0 0 0 0 0 0 0 0 0 0
0 0 0 0 0 0 0 0 0 0 0 0 0 0 0 0 0 0 0 0 0 0 0 0 0 0 0 0 0 0 0 0 0 0 0 0 0 0 0 0 0 0 0 0
0 0 0 0 0 0 0 0 0 0 0 0 0 0 -0 0 0 0 0 0 0 0 0 0 0 0 0 0 0 0 0 0 0 0 0 0 0 0 0 0 0 0 0 0
0 0 0 0 0 0 0 0 0 0 0 0 0 0 0 -0 -0 -0 -0 -0 -0 -0 -0 0 0 0 0 0 0 0 0 0 0 0 0 0 0 0 0 0 0 0 0 0
0 0 0 0 -0 0 0 0 0 0 0 0 0 0 0 -0 -0 -0 -0 -0 -0 -0 0 0 0 0 0 0 0 0 0 0 0 0 0 0 0 0 0 0 0 0 0 0
0 0 0 0 0 0 0 0 0 0 0 0 0 0 0 0 0 -0 -0 0 0 0 0 0 0 0 0 0 0 0 0 0 0 0 0 0 0 0 0 0 0 0 0 0
0 0 0 0 0 0 -0 0 0 0 0 0 0 0 0 0 0 0 0 0 0 0 0 0 0 0 0 0 0 0 0 0 0 0 0 0 0 0 0 0 0 0 0 0
-0 -0 0 0 0 0 0 0 0 0 0 0 0 0 0 0 0 0 0 -0 0 -0 0 0 0 0 0 0 0 0 0 0 0 0 0 0 0 0 0 0 0 0 0 0
0 0 0 0 0 -0 0 -0 0 -0 -0 -0 0 0 0 0 0 0 0 0 0 0 0 0 0 0 0 0 0 0 0 0 0 0 0 0 0 0 0 0 0 0 0 0
0 0 0 0 0 -0 -0 -0 -0 -0 0 -0 -0 -0 -0 -0 -0 0 0 0 0 0 0 0 0 0 0 0 0 0 0 0 0 0 0 0 0 0 0 0 0 0 0 0
0 0 0 -0 0 0 0 -0 0 0 -0 -0 -0 -0 -0 -0 -0 -0 -0 0 0 0 0 0 0 0 0 0 0 0 0 0 0 0 0 0 0 0 0 0 0 0 0 0
0 0 0 0 0 0 0 0 0 -0 -0 -0 -0 0 -0 -0 -0 -0 -0 -0 0 0 -0 0 0 0 0 0 0 0 0 0 0 0 0 0 0 0 0 0 0 0 0 0
0 0 0 0 0 0 0 0 0 0 0 0 0 0 0 0 -0 -0 -0 -0 -0 -0 -0 0 0 0 0 0 0 0 0 0 0 0 0 0 0 0 0 0 0 0 0 0
0 0 0 0 0 0 0 0 0 0 0 0 0 0 0 0 0 0 0 -0 -0 -0 -0 -0 0 0 0 0 0 0 0 0 0 0 0 0 0 0 0 0 0 0 0 0
0 0 0 -0 -0 -0 0 0 0 0 0 0 0 0 0 0 0 0 0 0 -0 -0 0 0 0 0 0 0 0 0 0 0 0 0 0 0 0 0 0 0 0 0 0 0
0 0 0 0 0 0 0 0 0 0 0 0 0 0 0 0 0 0 0 0 0 0 0 0 0 0 0 0 0 0 0 0 0 0 0 0 0 0 0 0 0 0 0 0
0 0 0 0 0 0 0 0 0 0 0 0 0 0 0 0 0 0 0 0 0 0 0 0 0 0 0 0 0 0 0 0 0 0 0 0 0 0 0 0 0 0 0 0
0 0 0 0 0 0 0 0 0 0 0 0 0 0 0 0 0 0 0 0 0 0 0 0 0 0 0 0 0 0 0 0 0 0 0 0 0 0 0 0 0 0 0 0
0 0 0 0 0 0 0 0 0 0 0 0 0 0 0 -0 -0 0 0 0 0 0 0 0 0 0 0 0 0 0 0 0 0 0 0 0 0 0 0 0 0 0 0 0
0 0 0 0 0 0 0 0 0 -0 -0 -0 -0 0 0 -0 0 0 0 0 0 0 0 0 0 0 0 0 0 0 0 0 0 0 0 0 0 0 0 0 0 0 0 0
0 0 0 0 0 0 0 0 0 0 0 -0 -0 -0 0 0 0 0 0 0 0 0 0 0 0 0 0 0 0 0 0 0 0 0 0 0 0 0 0 0 0 0 0 0
0 0 0 0 0 0 0 0 0 0 0 0 0 0 0 0 0 0 0 0 0 0 0 0 0 0 0 0 0 0 0 0 0 0 0 0 0 0 0 0 0 0 0 0
0 0 0 0 0 0 0 0 0 0 0 0 0 0 0 0 0 0 0 0 0 0 0 0 0 0 0 0 0 0 0 0 0 0 0 0 0 0 0 0 0 0 0 0
0 0 0 0 0 0 0 0 0 0 0 0 0 0 0 0 0 0 0 0 0 0 0 0 0 0 0 0 0 0 0 0 0 0 0 0 0 0 0 0 0 0 0 0
0 0 0 0 0 0 0 0 0 0 0 0 0 0 0 0 0 0 0 0 0 0 0 0 0 0 0 0 0 0 0 0 0 0 0 0 0 0 0 0 0 0 0 0
0 0 0 0 0 0 0 0 0 0 0 0 0 0 0 0 0 0 0 0 0 0 0 0 0 0 0 0 0 0 0 0 0 0 0 0 0 0 0 0 0 0 0 0
Wind_Speed_500mb
29 10 33 33 34 30 37 54 21 28 14 14 12 8 14 18 21 21 18 18 16 15 17 21 29 35 40 45 50 56 59 62 65 66 62 57 54 51 49 48 44 40 39 37
5 31 17 29 36 34 31 38 30 10 6 7 3 8 12 17 16 15 11 8 2 9 14 19 23 29 36 44 50 54 58 62 66 67 64 60 56 53 51 49 47 44 43 40
7 14 30 17 38 44 45 17 47 28 22 10 6 13 7 3 2 4 3 4 8 16 19 18 20 24 32 39 45 53 57 62 68 69 66 61 58 55 54 52 49 47 45 42
12 12 15 5 9 20 43 32 43 22 11 17 29 49 14 15 14 10 19 16 14 17 17 15 17 24 26 35 43 51 57 63 68 69 67 64 62 59 56 55 53 50 47 43
6 12 17 7 7 2 23 42 32 14 30 11 9 6 49 16 19 24 29 32 39 31 24 21 19 20 28 35 43 52 61 67 71 72 70 68 68 64 60 57 55 51 47 45
8 8 10 9 10 17 1 35 17 18 14 12 19 16 27 54 56 48 39 36 40 51 51 53 44 33 38 41 46 57 65 68 70 72 72 72 69 64 61 59 55 52 49 46
21 13 12 15 12 6 14 3 12 28 23 19 9 18 17 26 35 44 43 40 34 38 42 35 34 34 39 47 51 55 59 66 69 72 73 71 69 68 64 61 57 54 51 49
19 24 32 12 9 7 9 11 0 14 22 18 12 14 17 26 38 38 34 38 42 45 41 41 40 42 49 52 48 56 59 64 71 73 74 74 74 69 67 64 62 60 58 55
21 13 14 47 47 48 34 36 45 29 22 21 24 31 40 41 42 39 34 27 34 45 47 54 55 52 56 52 61 62 62 64 68 73 76 77 77 76 73 70 69 66 63 60
13 20 20 29 62 73 70 62 69 75 44 29 34 39 44 52 42 39 35 33 33 32 35 43 50 56 53 55 58 60 62 64 67 73 77 76 78 78 78 78 76 71 66 64
19 20 33 45 53 67 79 89 83 77 71 39 43 56 47 50 53 50 59 55 45 46 48 46 49 49 53 53 55 56 60 66 69 72 76 78 80 79 79 76 74 70 68 63
21 36 44 58 70 85 79 78 79 66 78 76 79 72 64 50 53 48 50 49 48 50 55 56 55 53 51 51 58 56 59 69 73 75 78 80 82 81 78 73 69 65 57 54
44 84 71 79 77 77 78 91 92 86 80 75 77 79 70 53 49 59 58 58 59 57 63 57 55 58 51 58 64 63 63 71 78 79 82 85 86 85 83 78 69 59 55 51
81 64 47 71 59 83 86 83 70 70 71 70 77 63 58 58 58 67 74 72 67 65 70 65 54 56 55 56 64 65 66 73 80 85 87 88 87 85 83 80 77 72 62 55
64 73 76 48 41 45 49 48 60 70 60 57 53 53 52 47 41 42 55 68 68 66 69 68 60 52 54 52 60 67 70 77 83 86 88 87 87 86 82 79 75 67 61 57
6 24 31 35 44 34 33 30 38 48 58 60 52 48 37 29 27 35 42 45 64 65 60 63 65 54 52 52 61 68 73 79 86 89 90 91 90 90 86 82 75 70 66 61
12 10 5 22 27 34 40 40 36 33 41 46 56 47 42 40 34 37 34 37 49 52 51 55 60 56 46 54 61 72 79 81 86 90 93 94 95 94 89 83 79 74 68 63
15 15 14 21 26 25 22 20 24 35 37 37 42 46 47 43 32 31 32 30 42 46 50 50 54 52 48 57 64 76 82 85 86 92 95 96 93 89 84 80 74 70 68 67
26 30 28 29 33 39 39 32 27 27 30 33 36 34 34 29 28 30 31 33 38 45 46 43 48 48 50 56 68 77 82 88 89 91 92 92 89 83 80 77 75 73 73 69
30 33 38 41 41 47 51 48 48 41 36 35 36 37 32 30 29 31 35 39 39 41 44 35 44 54 50 55 76 78 82 88 91 94 93 90 89 87 83 79 77 77 72 66
34 36 38 41 46 50 56 54 57 61 54 43 42 43 40 39 36 36 41 48 45 46 42 40 48 64 54 44 68 74 81 87 91 95 94 96 93 87 83 81 80 76 69 64
45 47 46 45 46 49 47 53 56 59 61 61 48 48 48 46 41 40 43 50 47 43 42 42 48 56 50 60 78 81 83 88 92 98 102 98 92 91 89 83 79 71 65 62
54 56 56 51 52 56 52 52 53 55 56 56 54 50 52 47 43 44 48 47 48 41 43 41 50 69 62 71 79 86 91 95 100 98 95 93 92 85 81 79 73 68 66 64
54 54 59 53 51 57 62 49 42 44 46 47 47 45 45 47 49 49 42 44 41 39 40 48 60 66 73 76 87 92 92 92 91 93 92 88 83 82 81 77 74 71 68 64
49 50 50 48 49 52 46 35 33 34 36 38 40 44 46 47 51 47 39 36 36 36 41 50 58 73 76 81 90 91 92 88 87 81 81 81 83 83 79 76 74 71 66 62
41 41 41 39 41 38 33 26 26 25 28 36 38 40 41 43 44 40 37 35 34 38 49 57 70 78 79 83 85 82 82 78 78 81 78 81 83 82 80 76 74 70 68 63
32 30 32 30 21 23 22 20 28 32 30 33 36 38 39 38 41 38 35 40 38 46 56 62 65 68 73 74 74 72 77 82 81 81 81 82 82 82 79 75 72 69 66 63
Wind_Direction_500mb
226 235 196 209 209 194 205 221 192 227 180 262 308 144 139 140 115 110 121 136 155 182 203 210 212 213 213 213 211 209 211 211 208 204 204 203 202 202 202 204 204 202 203 203
38 251 216 215 206 199 220 225 245 120 267 236 112 58 60 87 99 87 75 85 144 230 228 234 228 224 215 212 212 212 211 209 205 204 206 205 204 204 203 203 203 203 203 206
289 348 231 237 208 201 217 201 219 219 206 295 206 223 171 153 226 175 150 262 276 274 273 266 257 242 230 222 215 213 211 206 204 205 207 207 207 207 206 205 204 204 204 206
293 321 227 319 335 222 219 221 228 238 164 206 246 273 267 267 305 301 299 306 315 307 300 309 270 249 233 228 221 216 212 209 208 208 209 209 210 209 208 207 207 206 205 205
259 311 315 259 298 247 206 234 227 218 230 187 162 297 281 262 294 297 298 296 298 302 317 313 286 260 242 228 223 219 216 212 210 210 211 210 211 210 209 209 209 208 208 208
178 268 242 275 170 175 93 255 229 195 188 157 141 220 249 277 294 304 307 306 299 294 293 285 280 262 244 237 229 226 220 216 213 213 213 213 213 213 211 211 211 211 210 211
215 227 260 269 305 329 156 333 60 120 121 130 164 223 244 265 281 290 287 290 291 297 301 293 272 267 253 244 243 240 228 222 218 216 216 215 214 214 213 212 211 211 213 213
205 207 232 235 287 209 199 162 128 119 122 145 213 239 249 280 302 298 287 270 266 267 269 282 285 286 275 256 261 243 232 226 222 219 217 215 215 214 213 212 212 211 212 214
200 209 210 209 231 246 255 268 277 266 245 209 229 255 279 286 297 283 275 282 272 266 262 265 272 271 273 274 255 243 234 227 224 221 219 218 215 213 212 211 213 213 214 216
248 246 249 240 220 238 246 253 268 276 262 223 243 269 280 281 280 263 270 279 282 293 292 283 276 266 264 267 259 246 235 227 223 220 218 217 216 215 214 213 213 213 216 219
232 237 256 255 249 253 251 250 252 251 256 243 255 266 260 271 276 266 276 271 276 285 290 298 300 277 260 258 248 243 231 226 222 218 217 215 215 216 216 219 221 219 220 222
233 232 237 248 241 243 250 253 246 242 257 263 269 268 265 263 263 259 266 276 279 277 279 289 293 295 257 246 245 242 230 222 219 216 213 212 212 211 214 219 223 224 227 230
238 237 236 247 258 259 249 247 256 260 258 258 263 264 262 252 251 269 271 273 276 278 279 274 278 287 271 241 243 240 230 223 217 213 211 209 209 210 210 210 215 219 220 219
237 239 242 242 239 253 258 266 261 261 260 256 253 247 239 248 256 265 269 269 269 269 268 268 266 278 275 243 239 233 227 223 218 213 210 209 208 210 212 213 208 207 208 211
235 237 236 246 243 247 261 267 275 267 256 241 226 223 230 234 245 266 278 271 264 260 263 264 262 265 265 241 233 228 223 219 215 214 211 209 207 208 210 210 209 206 202 201
282 228 228 239 248 252 256 285 278 261 249 238 210 196 207 230 256 278 291 284 265 258 260 260 257 252 255 239 228 223 221 219 215 211 208 205 205 206 205 205 203 203 202 201
341 84 123 225 237 235 229 232 249 273 279 246 227 226 236 253 256 273 280 300 275 259 256 253 255 251 244 234 229 221 217 213 215 209 206 204 205 204 203 200 201 200 201 197
302 290 267 261 273 270 246 227 227 229 246 256 256 242 243 246 256 261 272 291 281 263 251 247 251 249 237 230 220 217 214 210 209 207 204 202 202 201 198 198 198 198 191 190
289 290 283 273 272 275 276 270 251 237 228 239 250 251 249 256 260 254 264 274 280 264 260 259 257 250 235 226 215 213 209 207 205 204 204 201 199 196 195 195 195 190 191 192
289 285 284 280 270 271 272 270 275 265 254 263 271 272 275 274 278 278 272 277 283 280 266 264 256 238 227 216 205 206 205 204 203 200 198 196 193 193 192 191 191 191 189 189
305 297 290 280 272 267 268 269 269 272 273 270 270 275 278 278 275 270 268 265 269 267 263 255 244 231 221 214 206 206 203 202 201 199 194 192 192 190 188 188 188 187 184 187
310 306 300 293 284 273 265 267 265 264 264 268 264 262 265 266 266 266 261 261 269 261 257 251 239 235 223 209 207 207 206 203 200 194 192 190 188 187 185 183 184 184 186 185
308 304 300 296 291 285 273 263 258 261 263 263 262 260 258 265 264 258 255 259 260 252 248 242 236 222 212 208 207 206 202 198 193 192 188 186 186 183 182 179 179 179 177 175
305 298 295 294 284 279 278 272 267 259 258 256 256 259 259 260 259 259 260 261 259 253 247 225 220 218 212 207 206 201 196 191 189 188 185 183 180 181 178 174 173 171 168 167
303 297 292 289 285 281 282 275 265 250 237 238 244 247 247 251 255 262 263 263 252 246 231 221 217 213 208 205 201 195 187 184 181 180 183 182 180 173 170 169 165 163 163 162
304 296 293 290 290 286 279 270 256 242 235 231 235 240 243 248 250 252 248 245 233 231 221 215 212 207 203 197 189 180 174 177 179 176 181 176 170 166 164 161 158 159 157 157
310 305 303 296 288 285 279 262 243 239 235 229 229 224 226 230 232 229 227 218 213 213 212 208 202 197 186 173 170 174 175 173 171 169 169 166 163 160 157 157 156 156 156 157
Wind_Speed_850mb
29 10 33 33 34 30 37 54 21 28 14 14 12 8 14 18 21 21 18 18 16 15 17 21 29 35 40 45 50 56 59 62 65 66 62 57 54 51 49 48 44 40 39 37
5 31 17 29 36 34 31 38 30 10 6 7 3 8 12 17 16 15 11 8 2 9 14 19 23 29 36 44 50 54 58 62 66 67 64 60 56 53 51 49 47 44 43 40
7 14 30 17 38 44 45 17 47 28 22 10 6 13 7 3 2 4 3 4 8 16 19 18 20 24 32 39 45 53 57 62 68 69 66 61 58 55 54 52 49 47 45 42
12 12 15 5 9 20 43 32 43 22 11 17 29 49 14 15 14 10 19 16 14 17 17 15 17 24 26 35 43 51 57 63 68 69 67 64 62 59 56 55 53 50 47 43
6 12 17 7 7 2 23 42 32 14 30 11 9 6 49 16 19 24 29 32 39 31 24 21 19 20 28 35 43 52 61 67 71 72 70 68 68 64 60 57 55 51 47 45
8 8 10 9 10 17 1 35 17 18 14 12 19 16 27 54 56 48 39 36 40 51 51 53 44 33 38 41 46 57 65 68 70 72 72 72 69 64 61 59 55 52 49 46
21 13 12 15 12 6 14 3 12 28 23 19 9 18 17 26 35 44 43 40 34 38 42 35 34 34 39 47 51 55 59 66 69 72 73 71 69 68 64 61 57 54 51 49
19 24 32 12 9 7 9 11 0 14 22 18 12 14 17 26 38 38 34 38 42 45 41 41 40 42 49 52 48 56 59 64 71 73 74 74 74 69 67 64 62 60 58 55
21 13 14 47 47 48 34 36 45 29 22 21 24 31 40 41 42 39 34 27 34 45 47 54 55 52 56 52 61 62 62 64 68 73 76 77 77 76 73 70 69 66 63 60
13 20 20 29 62 73 70 62 69 75 44 29 34 39 44 52 42 39 35 33 33 32 35 43 50 56 53 55 58 60 62 64 67 73 77 76 78 78 78 78 76 71 66 64
19 20 33 45 53 67 79 89 83 77 71 39 43 56 47 50 53 50 59 55 45 46 48 46 49 49 53 53 55 56 60 66 69 72 76 78 80 79 79 76 74 70 68 63
21 36 44 58 70 85 79 78 79 66 78 76 79 72 64 50 53 48 50 49 48 50 55 56 55 53 51 51 58 56 59 69 73 75 78 80 82 81 78 73 69 65 57 54
44 84 71 79 77 77 78 91 92 86 80 75 77 79 70 53 49 59 58 58 59 57 63 57 55 58 51 58 64 63 63 71 78 79 82 85 86 85 83 78 69 59 55 51
81 64 47 71 59 83 86 83 70 70 71 70 77 63 58 58 58 67 74 72 67 65 70 65 54 56 55 56 64 65 66 73 80 85 87 88 87 85 83 80 77 72 62 55
64 73 76 48 41 45 49 48 60 70 60 57 53 53 52 47 41 42 55 68 68 66 69 68 60 52 54 52 60 67 70 77 83 86 88 87 87 86 82 79 75 67 61 57
6 24 31 35 44 34 33 30 38 48 58 60 52 48 37 29 27 35 42 45 64 65 60 63 65 54 52 52 61 68 73 79 86 89 90 91 90 90 86 82 75 70 66 61
12 10 5 22 27 34 40 40 36 33 41 46 56 47 42 40 34 37 34 37 49 52 51 55 60 56 46 54 61 72 79 81 86 90 93 94 95 94 89 83 79 74 68 63
15 15 14 21 26 25 22 20 24 35 37 37 42 46 47 43 32 31 32 30 42 46 50 50 54 52 48 57 64 76 82 85 86 92 95 96 93 89 84 80 74 70 68 67
26 30 28 29 33 39 39 32 27 27 30 33 36 34 34 29 28 30 31 33 38 45 46 43 48 48 50 56 68 77 82 88 89 91 92 92 89 83 80 77 75 73 73 69
30 33 38 41 41 47 51 48 48 41 36 35 36 37 32 30 29 31 35 39 39 41 44 35 44 54 50 55 76 78 82 88 91 94 93 90 89 87 83 79 77 77 72 66
34 36 38 41 46 50 56 54 57 61 54 43 42 43 40 39 36 36 41 48 45 46 42 40 48 64 54 44 68 74 81 87 91 95 94 96 93 87 83 81 80 76 69 64
45 47 46 45 46 49 47 53 56 59 61 61 48 48 48 46 41 40 43 50 47 43 42 42 48 56 50 60 78 81 83 88 92 98 102 98 92 91 89 83 79 71 65 62
54 56 56 51 52 56 52 52 53 55 56 56 54 50 52 47 43 44 48 47 48 41 43 41 50 69 62 71 79 86 91 95 100 98 95 93 92 85 81 79 73 68 66 64
54 54 59 53 51 57 62 49 42 44 46 47 47 45 45 47 49 49 42 44 41 39 40 48 60 66 73 76 87 92 92 92 91 93 92 88 83 82 81 77 74 71 68 64
49 50 50 48 49 52 46 35 33 34 36 38 40 44 46 47 51 47 39 36 36 36 41 50 58 73 76 81 90 91 92 88 87 81 81 81 83 83 79 76 74 71 66 62
41 41 41 39 41 38 33 26 26 25 28 36 38 40 41 43 44 40 37 35 34 38 49 57 70 78 79 83 85 82 82 78 78 81 78 81 83 82 80 76 74 70 68 63
32 30 32 30 21 23 22 20 28 32 30 33 36 38 39 38 41 38 35 40 38 46 56 62 65 68 73 74 74 72 77 82 81 81 81 82 82 82 79 75 72 69 66 63
Wind_Direction_850mb
226 235 196 209 209 194 205 221 192 227 180 262 308 144 139 140 115 110 121 136 155 182 203 210 212 213 213 213 211 209 211 211 208 204 204 203 202 202 202 204 204 202 203 203
38 251 216 215 206 199 220 225 245 120 267 236 112 58 60 87 99 87 75 85 144 230 228 234 228 224 215 212 212 212 211 209 205 204 206 205 204 204 203 203 203 203 203 206
289 348 231 237 208 201 217 201 219 219 206 295 206 223 171 153 226 175 150 262 276 274 273 266 257 242 230 222 215 213 211 206 204 205 207 207 207 207 206 205 204 204 204 206
293 321 227 319 335 222 219 221 228 238 164 206 246 273 267 267 305 301 299 306 315 307 300 309 270 249 233 228 221 216 212 209 208 208 209 209 210 209 208 207 207 206 205 205
259 311 315 259 298 247 206 234 227 218 230 187 162 297 281 262 294 297 298 296 298 302 317 313 286 260 242 228 223 219 216 212 210 210 211 210 211 210 209 209 209 208 208 208
178 268 242 275 170 175 93 255 229 195 188 157 141 220 249 277 294 304 307 306 299 294 293 285 280 262 244 237 229 226 220 216 213 213 213 213 213 213 211 211 211 211 210 211
215 227 260 269 305 329 156 333 60 120 121 130 164 223 244 265 281 290 287 290 291 297 301 293 272 267 253 244 243 240 228 222 218 216 216 215 214 214 213 212 211 211 213 213
205 207 232 235 287 209 199 162 128 119 122 145 213 239 249 280 302 298 287 270 266 267 269 282 285 286 275 256 261 243 232 226 222 219 217 215 215 214 213 212 212 211 212 214
200 209 210 209 231 246 255 268 277 266 245 209 229 255 279 286 297 283 275 282 272 266 262 265 272 271 273 274 255 243 234 227 224 221 219 218 215 213 212 211 213 213 214 216
248 246 249 240 220 238 246 253 268 276 262 223 243 269 280 281 280 263 270 279 282 293 292 283 276 266 264 267 259 246 235 227 223 220 218 217 216 215 214 213 213 213 216 219
232 237 256 255 249 253 251 250 252 251 256 243 255 266 260 271 276 266 276 271 276 285 290 298 300 277 260 258 248 243 231 226 222 218 217 215 215 216 216 219 221 219 220 222
233 232 237 248 241 243 250 253 246 242 257 263 269 268 265 263 263 259 266 276 279 277 279 289 293 295 257 246 245 242 230 222 219 216 213 212 212 211 214 219 223 224 227 230
238 237 236 247 258 259 249 247 256 260 258 258 263 264 262 252 251 269 271 273 276 278 279 274 278 287 271 241 243 240 230 223 217 213 211 209 209 210 210 210 215 219 220 219
237 239 242 242 239 253 258 266 261 261 260 256 253 247 239 248 256 265 269 269 269 269 268 268 266 278 275 243 239 233 227 223 218 213 210 209 208 210 212 213 208 207 208 211
235 237 236 246 243 247 261 267 275 267 256 241 226 223 230 234 245 266 278 271 264 260 263 264 262 265 265 241 233 228 223 219 215 214 211 209 207 208 210 210 209 206 202 201
282 228 228 239 248 252 256 285 278 261 249 238 210 196 207 230 256 278 291 284 265 258 260 260 257 252 255 239 228 223 221 219 215 211 208 205 205 206 205 205 203 203 202 201
341 84 123 225 237 235 229 232 249 273 279 246 227 226 236 253 256 273 280 300 275 259 256 253 255 251 244 234 229 221 217 213 215 209 206 204 205 204 203 200 201 200 201 197
302 290 267 261 273 270 246 227 227 229 246 256 256 242 243 246 256 261 272 291 281 263 251 247 251 249 237 230 220 217 214 210 209 207 204 202 202 201 198 198 198 198 191 190
289 290 283 273 272 275 276 270 251 237 228 239 250 251 249 256 260 254 264 274 280 264 260 259 257 250 235 226 215 213 209 207 205 204 204 201 199 196 195 195 195 190 191 192
289 285 284 280 270 271 272 270 275 265 254 263 271 272 275 274 278 278 272 277 283 280 266 264 256 238 227 216 205 206 205 204 203 200 198 196 193 193 192 191 191 191 189 189
305 297 290 280 272 267 268 269 269 272 273 270 270 275 278 278 275 270 268 265 269 267 263 255 244 231 221 214 206 206 203 202 201 199 194 192 192 190 188 188 188 187 184 187
310 306 300 293 284 273 265 267 265 264 264 268 264 262 265 266 266 266 261 261 269 261 257 251 239 235 223 209 207 207 206 203 200 194 192 190 188 187 185 183 184 184 186 185
308 304 300 296 291 285 273 263 258 261 263 263 262 260 258 265 264 258 255 259 260 252 248 242 236 222 212 208 207 206 202 198 193 192 188 186 186 183 182 179 179 179 177 175
305 298 295 294 284 279 278 272 267 259 258 256 256 259 259 260 259 259 260 261 259 253 247 225 220 218 212 207 206 201 196 191 189 188 185 183 180 181 178 174 173 171 168 167
303 297 292 289 285 281 282 275 265 250 237 238 244 247 247 251 255 262 263 263 252 246 231 221 217 213 208 205 201 195 187 184 181 180 183 182 180 173 170 169 165 163 163 162
304 296 293 290 290 286 279 270 256 242 235 231 235 240 243 248 250 252 248 245 233 231 221 215 212 207 203 197 189 180 174 177 179 176 181 176 170 166 164 161 158 159 157 157
310 305 303 296 288 285 279 262 243 239 235 229 229 224 226 230 232 229 227 218 213 213 212 208 202 197 186 173 170 174 175 173 171 169 169 166 163 160 157 157 156 156 156 157